Location: Killam
(52.7910°N, 111.8608°W)
Time: 22:57:36
(UTC+00:00)

Vanguard 3 - Pass Details

Date: 23 February 2026
Orbit: 507 x 3205 km, 33.4° (Epoch: 11 March)

Event Time Altitude Azimuth Distance (km) Brightness Sun altitude
Rises 23:46:03 0° 244° (WSW) 5,947 14.0 8.9°
Reaches altitude 10° 23:51:41 10° 232° (SW) 4,405 13.3 8.1°
Maximum altitude 23:59:12 21° 190° (S) 2,828 10.5 7.1°
Drops below altitude 10° 00:04:31 10° 145° (SE) 2,970 10.0 6.4°
Sets 00:07:25 0° 128° (SE) 3,587 10.2 6.0°
